Home   Weather   Hayward   Past weeks

Flag for USA Past Weather in Hayward, California, USA — Yesterday and Last 2 Weeks

Now
65 °F

Partly sunny.


Feels Like: 65 °F
Forecast: 62 / 76 °F
Wind: 7 mph from Northwest

Location: Hayward Air Terminal

Current Time: Jun 24, 2017 at 10:24:21 am

Latest Report: Jun 24, 2017 at 9:54 am


Visibility: 10 mi

Pressure: 29.99 "Hg

Humidity: 68%

Dew Point: 54 °F

Location of HaywardLocation

Past Weather in Hayward — Graph

°F

Hayward Temperature Yesterday

Maximum temperature yesterday: 79 °F (at 1:54 pm)
Minimum temperature yesterday: 59 °F (at 4:54 am)
Average temperature yesterday: 67 °F

High & Low Weather Summary for the Past Weeks

 TemperatureHumidityPressure
High99 °F (Jun 18, 2:54 pm)81% (Jun 23, 4:54 am)30.16 "Hg (Jun 23, 4:54 am)
Low54 °F (Jun 13, 3:54 am)20% (Jun 18, 1:54 pm)29.69 "Hg (Jun 22, 2:54 am)
Average67 °F58%29.94 "Hg
* Reported Jun 9 8:54 am — Jun 24 8:54 am, Hayward. Weather by CustomWeather, © 2017

Note: Actual official high and low records may vary slightly from our data, if they occured in-between our weather recording intervals... More about our weather records

Advertising

Hayward Weather History for the Previous 24 Hours

Scroll right to see more
 ConditionsComfort  
Time TempWeatherWind HumidityBarometerVisibility
8:54 am
Sat, Jun 24
63 °FOvercast.7 mph70%30.00 "Hg10 mi
7:54 am62 °FOvercast.7 mph73%30.00 "Hg10 mi
7:41 am62 °FOvercast.7 mph73%29.98 "Hg10 mi
6:54 am61 °FLow clouds.6 mph75%29.99 "Hg10 mi
5:54 am61 °FLow clouds.5 mph75%29.97 "Hg10 mi
4:54 am60 °FLow clouds.6 mph78%29.96 "Hg10 mi
3:54 am60 °FLow clouds.6 mph78%29.96 "Hg10 mi
2:54 am60 °FLow clouds.7 mph78%29.96 "Hg10 mi
1:54 am60 °FLow clouds.7 mph78%29.97 "Hg10 mi
12:54 am60 °FLow clouds.9 mph78%29.97 "Hg10 mi
11:54 pm
Fri, Jun 23
60 °FLow clouds.12 mph78%29.97 "Hg10 mi
11:23 pm61 °FPassing clouds.9 mph75%29.94 "Hg10 mi
10:54 pm61 °FClear.12 mph75%29.97 "Hg10 mi
9:54 pm61 °FClear.8 mph75%29.96 "Hg10 mi
8:54 pm62 °FPassing clouds.10 mph75%29.95 "Hg10 mi
7:54 pm66 °FPassing clouds.13 mph65%29.93 "Hg10 mi
6:54 pm69 °FSunny.14 mph61%29.91 "Hg10 mi
5:54 pm72 °FPassing clouds.14 mph55%29.91 "Hg10 mi
4:54 pm74 °FSunny.15 mph52%29.91 "Hg10 mi
3:54 pm74 °FSunny.20 mph52%29.92 "Hg10 mi
2:54 pm77 °FPassing clouds.16 mph48%29.92 "Hg10 mi
1:54 pm79 °FSunny.14 mph44%29.92 "Hg10 mi
12:54 pm77 °FSunny.13 mph45%29.93 "Hg10 mi
11:54 am76 °FSunny.12 mph47%29.93 "Hg10 mi
10:54 am73 °FSunny.7 mph51%29.93 "Hg10 mi
Weather by CustomWeather, © 2017

See weather overviewHow to use our weather pages